User: anonymous   Login
Location: Strawberry
(45.6646°N, 111.9596°W)
Time: 02:28:37
(UTC+00:00)
Language:

KKS-1 - Orbit

View from above orbital plane
View from above orbital plane
View from above satellite
View from above satellite

Ground track
Ground track

The orbit data is extracted from the following two-line orbital elements,

1 33499U 09002H   22343.53441180  .00001059  00000-0  16030-3 0  9997
2 33499  98.1938 228.2589 0010109 111.3610 248.8679 14.76315161746071
Epoch (UTC): 09 December 2022 12:49:33
Eccentricity: 0.0010109
inclination: 98.1938°
perigee height: 634 km
apogee height: 648 km
right ascension of ascending node: 228.2589°
argument of perigee: 111.3610°
revolutions per day: 14.76315161
mean anomaly at epoch: 248.8679°
orbit number at epoch: 74607

The dashed part of the orbit path shows where the satellite is in the earth's shadow,  

DLR